Home > Weather > Savannah > Past weeks

Flag for U.S.A. Weather for the Past 2 Weeks in Savannah, Georgia, U.S.A.

Now
28 °F

Clear.


Feels Like: 20 °F
Forecast: 31 / 45 °F
Wind: 9 mph from West

Location: Hunter U. S. Army Airfield

Current Time: Feb 10, 2016 at 6:46:48 AM

Latest Report: Feb 10, 2016 at 5:58 AM


Visibility: 10 mi

Pressure: 30.05 "Hg

Humidity: 79%

Dew point: 22 °F

Location of SavannahLocation

Historic Weather in Savannah — Graph

°F

Savannah Temperature Yesterday

Maximum temperature yesterday: 48 °F (at 1:58 PM)
Minimum temperature yesterday: 35 °F (at 6:58 AM)
Average temperature yesterday: 41 °F

High & Low Weather Summary for the Past Weeks

 TemperatureHumidityPressure
High77 °F (Feb 1, 1:58 PM)100% (Jan 26, 5:48 AM)30.37 "Hg (Jan 26, 5:48 AM)
Low27 °F (Feb 10, 4:58 AM)32% (Feb 8, 1:58 PM)29.72 "Hg (Feb 8, 3:58 PM)
Average51 °F78%30.04 "Hg
* Reported Jan 26 5:48 AM — Feb 10 5:58 AM, Savannah, Weather by CustomWeather, © 2016

Note: Actual official high and low records may vary slightly from our data, if they occured in-between our weather recording intervals... More about our weather records

Advertising

Savannah Weather History for the Previous 24 Hours

 ConditionsComfort  
Time TempWeatherWind HumidityBarometerVisibility
5:58 AM
Wed, Feb 10
28 °FClear.9 mph79%30.05 "Hg10 mi
4:58 AM27 °FClear.7 mph80%30.04 "Hg10 mi
3:58 AM29 °FClear.6 mph75%30.03 "Hg10 mi
2:58 AM28 °FClear.5 mph74%30.03 "Hg10 mi
1:58 AM30 °FClear.6 mph69%30.03 "Hg10 mi
12:58 AM32 °FClear.7 mph63%30.02 "Hg10 mi
11:58 PM
Tue, Feb 9
36 °FClear.8 mph50%30.02 "Hg10 mi
10:58 PM37 °FClear.12 mph46%30.01 "Hg10 mi
9:58 PM40 °FPassing clouds.10 mph53%29.99 "Hg10 mi
8:58 PM42 °FPassing clouds.13 mph49%29.96 "Hg10 mi
7:58 PM43 °FMostly cloudy.13 mph49%29.93 "Hg10 mi
6:58 PM44 °FOvercast.8 mph47%29.90 "Hg10 mi
5:58 PM46 °FPartly sunny.14 mph42%29.87 "Hg10 mi
4:58 PM47 °FPartly sunny.9 mph40%29.85 "Hg10 mi
3:58 PM48 °FScattered clouds.20 mph38%29.82 "Hg10 mi
2:58 PM47 °FPartly sunny.24 mph39%29.81 "Hg10 mi
1:58 PM48 °FPartly sunny.21 mph41%29.82 "Hg10 mi
12:58 PM45 °FOvercast.17 mph47%29.84 "Hg10 mi
11:58 AM47 °FOvercast.23 mph44%29.85 "Hg10 mi
10:58 AM45 °FPartly sunny.22 mph45%29.87 "Hg10 mi
9:58 AM44 °FSunny.18 mph55%29.87 "Hg10 mi
8:58 AM41 °FSunny.13 mph64%29.90 "Hg10 mi
7:58 AM37 °FSunny.12 mph74%29.89 "Hg10 mi
6:58 AM35 °FClear.7 mph76%29.87 "Hg10 mi
Weather by CustomWeather, © 2016

See weather overviewHow to use our weather pages